Location: Helion Bumpstead
(52.0500°N, 0.4000°E)
Time: 12:29:57
(UTC+00:00)

Cosmos 2237 Rocket - Pass Details

Date: 15 November 2025
Orbit: 835 x 847 km, 71.0° (Epoch: 10 December)

Event Time Altitude Azimuth Distance (km) Brightness Sun altitude
Exits shadow 03:37:37 43° 110° (ESE) 1,173 3.1 -33.6°
Drops below altitude 10° 03:42:55 10° 41° (NE) 2,466 5.2 -32.8°
Sets 03:45:28 0° 35° (NE) 3,403 5.9 -32.5°
